www.pogodaiklimat.ru

Погода и климат >> Архив погоды >> Россия >> Кемеровская область >> Центральный Рудник


ПОГОДА в Центральном Руднике

  • Прогноз погоды в Центральном Руднике
  • Монитор погоды в Центральном Руднике

АРХИВ ПОГОДЫ в Центральном Руднике

Время (UTC), дата Ветер
(напр.,м/с)
 
Видим.   Явления Облачность Т
(С)
Тd
(С)
f
(%)
Тe
(С)
Тes
(С)
Комфортность P
(гПа)
Po
(гПа)
Тmin
(С)
Tmax
(С)
R
(мм)
R24
(мм)
S
(см)
06 16.05 Ю 4 50 км 8/4 600 м
[Cb cap Ac As Ci fib]
+7.1 -6.1 38 +4 +8 1019.9 960.2
09 16.05 СЗ 2 50 км 8/4 1000 м
[Sc Ac trans Ci fib]
+8.6 -11.4 23 +8 +12 1019.5 960.1
12 16.05 С 2 50 км 9/4 600 м
[Cb calv Ac trans Ci fib]
+7.4 -11.0 26 +6 +7 1020.2 960.5 +10.2
15 16.05 З 1 50 км 9/4 600 м
[Cb calv Ac As Ci fib]
+3.4 -9.8 37 +3 +3 1022.0 961.4
18 16.05 В 1 50 км 6/3 1000 м
[Sc Ac trans Ci fib]
+1.3 -6.2 57 0 0 1022.7 961.6
21 16.05 штиль 0 50 км 4/1 1000 м
[Sc Ac lent Ci fib]
-2.1 -5.0 80 -3 -3 1023.5 961.6
00 17.05 СВ 1 50 км 4/0
[Ac lent]
+0.2 -3.8 74 -2 -0 1023.6 962.2 -2.8 0
03 17.05 СЗ 2 50 км 8/3 1000 м
[Cu med, cong Ac trans Ci fib]
+7.1 -7.8 34 +6 +10 1022.2 962.3
06 17.05 З 3
{11}
50 км 9/6 600 м
[Cb cap Ac As Ci fib]
+7.7 -8.1 32 +6 +9 1021.4 961.7
09 17.05 З 3 50 км 8/6 600 м
[Cb cap Ac As Ci fib]
+10.4 -10.3 22 +9 +12 1020.5 961.4
12 17.05 З 2
{10}
50 км 9/5 600 м
[Cb cap Ac As Ci fib]
+9.3 -10.1 24 +9 +9 1020.8 961.5 +10.8
15 17.05 Ю 2 50 км 9/4 600 м
[Cb cap Ac As Ci fib]
+4.5 -8.2 39 +3 +3 1022.9 962.4
18 17.05 Ю 3 50 км 9/3 600 м
[Cb cap Ac trans Ci fib]
+3.6 -2.9 62 0 0 1023.4 962.8
21 17.05 Ю 2 50 км 8/3 600 м
[Cb cap Ac lent Ci fib]
+2.8 -2.7 67 0 0 1022.8 962.0
00 18.05 Ю 3 50 км 9/3 1000 м
[Sc Ac lent Ci sp]
+3.8 -2.2 65 0 +1 1022.3 961.8 +2.7 0
03 18.05 Ю 4 50 км 9/3 1000 м
[Cu med, cong Cs]
+7.3 -2.5 50 +4 +8 1020.5 960.8
06 18.05 Ю 4
{10}
50 км 9/4 1000 м
[Cu med, cong Cs]
+10.0 -6.5 31 +8 +13 1017.8 958.8
09 18.05 ЮЗ 4
{10}
50 км 10/3 1000 м
[Sc As trans Cs]
+10.8 -6.5 29 +9 +11 1015.9 957.2
12 18.05 Ю 3 50 км 10/3 1000 м
[Sc Ac As]
+11.3 -6.2 29 +10 +11 1014.2 955.7 +12.0
15 18.05 ЮВ 1 50 км 10/5 600 м
[Cb cap Ac und]
+9.2 -6.2 33 +9 +9 1013.7 954.8
18 18.05 ЮВ 2 50 км 9/3 1000 м
[Sc Ac As Ci fib]
+8.2 -7.8 31 +7 +7 1012.4 953.4
21 18.05 ЮВ 2 50 км 10/3 1000 м
[Sc Ac As Ci fib]
+8.8 -8.3 29 +8 +8 1010.4 951.6
00 19.05 Ю 1 50 км 8/3 1000 м
[Sc Ac As Ci fib]
+11.4 -7.6 26 +12 +13 1009.0 950.8 +7.2 0
03 19.05 Ю 5
{11}
50 км 8/3 1000 м
[Sc Ac trans Ci fib]
+17.4 -7.1 18 +17 +19 1005.8 948.9
06 19.05 Ю 6-10
{15}
50 км 8/3 1000 м
[Sc Ac As Ci sp]
+21.2 -6.5 15 +20 +23 1003.5 947.4
09 19.05 ЮЗ 9-14
{17}
50 км 9/4 1000 м
[Sc Ac trans Ci fib]
+22.6 -6.6 14 +21 +21 комфорт 1002.4 946.7
12 19.05 ЮЗ 8-14
{17}
50 км 8/3 600 м
[Cb calv Ac trans Ci fib]
+19.8 -0.8 25 +19 +19 1003.5 947.3 +23.1
15 19.05 ЮЗ 4
{14}
50 км 8/4 600 м
[Cb calv Ac trans Ci fib]
+17.0 -0.3 31 +17 +17 1004.9 948.1
18 19.05 СЗ 1 50 км 8/3 1000 м
[Sc Ac trans Ci fib]
+12.0 +1.8 50 +12 +12 1006.7 948.8
21 19.05 Ю 1 50 км 9/4 600 м
[Cb calv Ac As Ci fib]
+8.1 +3.0 70 +8 +8 1007.7 949.0
00 20.05 С 1 50 км 9/4 600 м
[Cb calv Ac As Ci fib]
+10.2 +5.0 70 +10 +11 1007.4 949.2 +6.5 0
03 20.05 ЮЗ 5
{11}
50 км 9/5 600 м
[Cb calv Ac As]
+14.0 +7.3 64 +12 +13 1006.0 948.6
06 20.05 ЮЗ 6-12
{13}
50 км 9/5 600 м
[Cb calv Ac trans Ci fib]
+18.1 +4.6 41 +18 +19 1004.8 948.2
09 20.05 ЮЗ 7-14
{14}
50 км 9/6 600 м
[Cb calv Ac As]
+18.5 -0.2 28 +18 +18 1004.3 947.8
12 20.05 ЮЗ 8-15
{16}
50 км 9/6 600 м
[Cb cap Ac As]
+17.0 +1.8 36 +16 +16 1004.7 947.9 +20.1
15 20.05 Ю 4
{15}
20 км слаб. ливневой дождь 10/6 600 м
[Cb cap Ac und]
+14.0 +6.4 60 +13 +13 1004.6 947.2
18 20.05 ЮВ 1 20 км гроза, ливневой дождь 10/5 600 м
[Cb cap Ac und]
+8.1 +6.7 91 +7 +7 1006.0 947.5
21 20.05 В 1 50 км {гроза, ливн. осадки} 10/5 600 м
[Cb cap Ac und]
+7.3 +6.0 91 +6 +6 1002.4 943.9
00 21.05 СВ 1 20 км слаб. ливневой дождь {гроза} 10/10 600 м
[Cb cap]
+7.1 +5.9 92 +6 +6 997.8 939.5 +7.1 8 0
03 21.05 З 1 50 км в посл. час ливневой дождь 10/8 570 м
[Cb cap Ac und]
+8.2 +7.1 93 +7 +8 998.9 940.8
06 21.05 З 1 50 км {ливн. осадки} 10/8 400 м
[Cb cap Ac und]
+7.2 +6.1 93 +6 +7 1002.4 943.9
09 21.05 З 2 50 км 10/6 600 м
[Cb cap Ac As Ci fib]
+9.1 +5.0 75 +8 +10 1003.2 945.0
12 21.05 ЮЗ 2 50 км 9/5 600 м
[Cb cap Ac As]
+9.9 +4.3 68 +9 +9 1002.9 944.9 +11.1 5
15 21.05 Ю 1 50 км {ливн. осадки} 10/6 600 м
[Cb cap Ac und]
+6.1 +4.4 89 +5 +5 1003.5 944.7
18 21.05 Ю 2 50 км в посл. час ливневой дождь {гроза} 10/6 600 м
[Cb cap Ac und]
+6.4 +4.8 89 +4 +4 1004.5 945.7
21 21.05 Ю 3 50 км 9/6 600 м
[Cb cap Ac As]
+5.1 +2.5 83 +2 +2 1005.4 946.2
00 22.05 ЮЗ 4
{10}
50 км 9/5 600 м
[Cb cap Ac As]
+4.6 +1.6 81 0 +1 1007.3 947.9 +4.5 3 0
03 22.05 ЮЗ 4
{10}
50 км 8/8 600 м
[Cb cap]
+7.1 +1.1 66 +4 +5 1007.8 948.9
06 22.05 ЮЗ 4
{10}
50 км 8/6 600 м
[Cb cap Ac trans]
+9.5 +1.1 56 +7 +10 1007.3 948.9
09 22.05 З 3 50 км 6/5 600 м
[Cb cap Ac trans]
+12.1 +0.3 44 +11 +15 1005.2 947.4
12 22.05 З 2 50 км в посл. час ливневой дождь 9/6 600 м
[Cb cap Ac As Ci fib]
+9.5 -1.0 48 +8 +9 1004.8 946.5 +13.1 0.0
15 22.05 В 1 50 км 8/4 600 м
[Cb cap Ac trans Ci fib]
+5.6 -0.5 65 +5 +5 1005.9 946.8
18 22.05 СВ 1 50 км 5/3 1000 м
[Sc Ac lent Ci fib]
+2.8 +0.8 87 +1 +1 1007.2 947.4
21 22.05 ЮЗ 1 50 км 8/3 600 м
[Cb cap Ac trans Ci fib]
+2.9 +0.8 86 +1 +1 1008.6 948.7
00 23.05 ЮВ 1 50 км {ливн. осадки} 9/4 600 м
[Cb cap Ac As Ci fib]
+4.2 +1.9 85 +3 +4 1010.3 950.7 -0.2 0.5 0

 

Местоположение метеостанции Центральный Рудник (Кемеровская область, Россия): широта 55.20 долгота 87.65 высота над уровнем моря 498 м.

В архиве по умолчанию представлена погода в Центральном Руднике за последнюю неделю. Архивные данные за месяц целиком и за предыдущие месяцы, начиная с января 2011 года, Вы можете получить, выбрав интересующий диапазон дат из раскрывающегося списка и нажав кнопку "Ввод!".


*Определитесь, кто Вы:
робот инопланетянин человек

Внимание! Время в таблицах - всемирное. Для получения местного времени необходимо прибавить поправку, которая равна 7 ч.

Смотрите также архив погоды в соседних городах и на ближайших метеорологических станциях:

Погода в Крапивино (Кемеровская область, Россия) (57 км)
Погода в Тисуле (Кемеровская область, Россия) (74 км)
Погода в Ненастной (Хакасия, Россия) (90 км)
Погода в Кемерово (Кемеровская область, Россия) (91 км)
Погода в Кемерово АМС (Кемеровская область, Россия) (94 км)
Погода в Барзасе (Кемеровская область, Россия) (103 км)
Погода в Шарыпово (Красноярский край, Россия) (105 км)
Погода в Ленинск-Кузнецком (Кемеровская область, Россия) (108 км)
Погода в Мариинске (Кемеровская область, Россия) (109 км)
Погода в Тяжине (Кемеровская область, Россия) (116 км)

Пояснения к столбцам:

Ветер - указаны скорость ветра в м/с - средняя за 10 мин, порывы в срок и между сроками (в фигурных скобках) и направление, откуда дует ветер: С - северный, СВ - северо-восточный, В - восточный, ЮВ - юго-восточный, Ю - южный, ЮЗ - юго-западный, З - западный, СЗ - северо-западный.
Видимость - горизонтальная дальность видимости в метрах или километрах. При видимости от 1 до 10 км при отсутствии осадков обычно наблюдается дымка, при ухудшении видимости до 1 км и менее - туман. В сухую погоду видимость может ухудшаться дымом, пылью или мглою.
Явления - указаны атмосферные явления, наблюдавшиеся в срок или в последний час перед сроком; фигурными скобками обозначены явления, наблюдавшиеся между сроками (за 1-3 часа до срока); квадратными скобками обозначены град или гололедные отложения с указанием их диаметра в мм.
Облачность - указаны через наклонную черту общая и нижняя облачность в баллах и высота нижней границы облаков в метрах; квадратными скобками обозначены формы облаков: Ci - перистые, Cs - перисто-слоистые, Cc - перисто-кучевые, Ac - высококучевые, As - высокослоистые, Sc - слоисто-кучевые, Ns - слоисто-дождевые, Cu - кучевые, Cb - кучево-дождевые. Подробнее классификацию облаков см. в Атласе облаков (PDF).
T - Температура воздуха - температура, измеренная на высоте 2 м над землей.
Td - Температура точки росы - температура, при понижении до которой содержащийся в воздухе водяной пар достигнет насыщения.
f - Относительная влажность воздуха - влажноcть воздуха, измеренная на высоте 2 м над землей.
Te - Эффективная температура - температура, которую ощущает одетый по сезону человек в тени. Характеристика душности погоды. При расчете учитывается влияние влажности воздуха и скорости ветра на теплоощущения человека.
Tes - Эффективная температура на солнце - температура, которую ощущает человек, с поправкой на солнечный нагрев. Характеристика знойности погоды. Зависит от высоты солнца над горизонтом, облачности и скорости ветра. Ночью, в пасмурную погоду, а также при ветре 12 м/с и более поправка равна нулю.
P - Атмосферное давление - приведенное к уровню моря атмосферное давление.
Po - Атмосферное давление - измеренное на уровне метеостанции атмосферное давление.
Tmin - Минимальная температура - минимум температуры воздуха на высоте 2 м над землей.
Tmax - Максимальная температура - максимум температуры воздуха на высоте 2 м над землей.
R - Количество осадков - Количество выпавших осадков за период времени, мм. При наведении курсора мыши на число - период времени, за который выпало указанное количество осадков.
R24 - Количество осадков - Количество выпавших осадков за 24 часа, мм.
S - Снежный покров - Высота снежного покрова, см. При наведении курсора мыши на число - состояние снежного покрова и степень покрытия местности в баллах.